Погода в Пуэрто Хуарес

Мексика     21°11′22″N   86°48′23″W
темп.,
°C
ветер,
м/с
пор.,
м/с
влажн.,
%
обл.,
%
осадки,
мм/ч
давл.,
гПа
погр.,
м
18 мая, вт
вт1801:00+27вюв5778100 0.1 1014753
04:00+27вюв5776100 0.0 1012769
07:00+27вюв687999 0.1 1013855
10:00+29вюв677199 0.3 10141057
13:00+29юв67696 0.7 10131039
16:00+29юв67678 0.9 10121080
19:00+27вюв577573 1.3 1012651
22:00+27вюв57805 0.3 1013625
19 мая, ср
ср1901:00+27вюв58818 1.1 1013698
04:00+27вюв6879100 0.0 1011876
07:00+27вюв6879100 0.1 1013856
10:00+29вюв687293 0.1 10141053
13:00+28вюв7877100 1.1 1013913
16:00+27вюв6880100 2.4 1011840
19:00+27вюв698380 3.8 1011729
22:00+27вюв8108299 0.7 1013833
20 мая, чт
чт2001:00+27вюв7108278 1.6 1012844
04:00+26вюв798367 2.1 1011744
07:00+27вюв7980100 3.7 1013805
10:00+27вюв688047 2.1 1014833
13:00+28вюв6778100 4.6 1013953
16:00+27вюв578060 2.4 1012732
19:00+27вюв68835 3.8 1012697
22:00+27в71084100 2.5 1014719
21 мая, пт
пт2101:00+27вюв71082100 3.5 1014859
04:00+26вюв6983100 2.1 1013716
07:00+26вюв688299 3.9 1014662
10:00+27в688483 3.4 1016609
13:00+27в6779100 8.5 1016659
16:00+26вюв798299 2.4 1015586
19:00+25в7985100 2.9 1015524
22:00+26в7108051 0.1 1016776
22 мая, сб
сб2201:00+26в81184100 4.1 1016832
04:00+26в81183100 2.8 1015819
07:00+26в91185100 6.7 1016814
10:00+26в91282100 6.0 1017995
13:00+26в81080100 9.4 1016920
16:00+26в71081100 3.9 1014839
19:00+26в71081100 9.5 1015754
22:00+26в6980100 3.4 1016761